UAL154 PKMJ-PKWA

Flight info

Callsign UAL154
Flight time 0h 43m
Altitude 28000
Route OREEO
Aircraft B738/M-SDE2E3FGHIRWXY/LB1

Departure

Time 2026-05-05 14:22
Airport Marshall Islands International Airport (PKMJ)

Arrival

Time 2026-05-05 15:05
Airport Bucholz Army Air Field (PKWA)
Time Latitude Longitude Altitude Speed Heading
2026-05-05 14:05 7.06849 171.28180 6 ft 0 kts 289°
2026-05-05 14:16 7.06849 171.28179 4 ft 0 kts 283°
2026-05-05 14:16 7.06847 171.28164 4 ft 6 kts 261°
2026-05-05 14:16 7.06827 171.28109 4 ft 7 kts 221°
2026-05-05 14:17 7.06747 171.28087 2 ft 16 kts 190°
2026-05-05 14:17 7.06704 171.28056 2 ft 3 kts 262°
2026-05-05 14:17 7.06696 171.27999 0 ft 14 kts 259°
2026-05-05 14:17 7.06663 171.27862 2 ft 25 kts 255°
2026-05-05 14:18 7.06618 171.27674 0 ft 27 kts 256°
2026-05-05 14:18 7.06573 171.27494 1 ft 26 kts 256°
2026-05-05 14:18 7.06533 171.27325 2 ft 24 kts 256°
2026-05-05 14:18 7.06495 171.27168 1 ft 23 kts 256°
2026-05-05 14:19 7.06457 171.27016 3 ft 23 kts 256°
2026-05-05 14:19 7.06414 171.26839 -2 ft 29 kts 256°
2026-05-05 14:19 7.06375 171.26675 -2 ft 21 kts 256°
2026-05-05 14:19 7.06336 171.26512 -3 ft 26 kts 257°
2026-05-05 14:20 7.06286 171.26320 -3 ft 29 kts 256°
2026-05-05 14:20 7.06267 171.26151 -2 ft 15 kts 227°
2026-05-05 14:20 7.06244 171.26151 -2 ft 1 kts 124°
2026-05-05 14:20 7.06247 171.26164 -2 ft 3 kts 70°
2026-05-05 14:21 7.06268 171.26243 -2 ft 34 kts 77°
2026-05-05 14:21 7.06380 171.26706 -3 ft 100 kts 76°
2026-05-05 14:21 7.06589 171.27579 18 ft 153 kts 78°
2026-05-05 14:21 7.06834 171.28697 447 ft 173 kts 80°
2026-05-05 14:22 7.07137 171.29868 1371 ft 165 kts 73°
2026-05-05 14:22 7.07499 171.31066 1756 ft 194 kts 70°
2026-05-05 14:22 7.08171 171.32337 1980 ft 217 kts 53°
2026-05-05 14:22 7.09445 171.33199 2456 ft 231 kts 21°
2026-05-05 14:23 7.11102 171.33274 2879 ft 251 kts 353°
2026-05-05 14:23 7.12755 171.32511 3206 ft 276 kts 323°
2026-05-05 14:23 7.13975 171.30979 3855 ft 287 kts 300°
2026-05-05 14:23 7.14797 171.29130 4713 ft 289 kts 292°
2026-05-05 14:24 7.15489 171.27221 5484 ft 292 kts 290°
2026-05-05 14:24 7.16155 171.25294 6182 ft 297 kts 289°
2026-05-05 14:24 7.16831 171.23339 6990 ft 296 kts 289°
2026-05-05 14:24 7.17525 171.21365 7681 ft 300 kts 290°
2026-05-05 14:25 7.18232 171.19377 8395 ft 303 kts 290°
2026-05-05 14:25 7.18956 171.17366 9107 ft 305 kts 290°
2026-05-05 14:25 7.19688 171.15350 9796 ft 311 kts 290°
2026-05-05 14:25 7.20439 171.13289 10374 ft 318 kts 290°
2026-05-05 14:26 7.21228 171.11133 10553 ft 340 kts 290°
2026-05-05 14:26 7.22069 171.08839 10838 ft 355 kts 290°
2026-05-05 14:26 7.22935 171.06479 11337 ft 362 kts 290°
2026-05-05 14:26 7.23815 171.04085 11862 ft 369 kts 290°
2026-05-05 14:27 7.24712 171.01646 12494 ft 370 kts 290°
2026-05-05 14:27 7.25608 170.99208 13155 ft 373 kts 290°
2026-05-05 14:27 7.26520 170.96727 13631 ft 382 kts 290°
2026-05-05 14:27 7.27446 170.94210 14240 ft 382 kts 290°
2026-05-05 14:28 7.28367 170.91703 14915 ft 383 kts 290°
2026-05-05 14:28 7.29278 170.89222 15556 ft 384 kts 290°
2026-05-05 14:28 7.30211 170.86682 16089 ft 388 kts 290°
2026-05-05 14:28 7.31153 170.84118 16597 ft 393 kts 290°
2026-05-05 14:29 7.32107 170.81522 17224 ft 394 kts 290°
2026-05-05 14:29 7.33058 170.78930 17789 ft 397 kts 290°
2026-05-05 14:29 7.34022 170.76305 18254 ft 402 kts 290°
2026-05-05 14:29 7.34996 170.73651 18750 ft 404 kts 290°
2026-05-05 14:30 7.35972 170.70992 19218 ft 406 kts 289°
2026-05-05 14:30 7.36957 170.68304 19660 ft 410 kts 289°
2026-05-05 14:30 7.37944 170.65614 20174 ft 410 kts 289°
2026-05-05 14:30 7.38939 170.62899 20564 ft 415 kts 289°
2026-05-05 14:31 7.39940 170.60168 21013 ft 417 kts 289°
2026-05-05 14:31 7.40948 170.57420 21445 ft 419 kts 289°
2026-05-05 14:31 7.41962 170.54651 21850 ft 422 kts 289°
2026-05-05 14:31 7.42982 170.51866 22265 ft 425 kts 289°
2026-05-05 14:32 7.44006 170.49069 22667 ft 427 kts 289°
2026-05-05 14:32 7.45041 170.46252 23052 ft 430 kts 289°
2026-05-05 14:32 7.46127 170.43425 23417 ft 433 kts 290°
2026-05-05 14:32 7.47246 170.40601 23745 ft 435 kts 291°
2026-05-05 14:33 7.48382 170.37763 24060 ft 437 kts 290°
2026-05-05 14:33 7.49523 170.34916 24376 ft 439 kts 290°
2026-05-05 14:33 7.50651 170.32094 24658 ft 441 kts 290°
2026-05-05 14:33 7.51795 170.29221 24989 ft 442 kts 290°
2026-05-05 14:34 7.52942 170.26335 25310 ft 444 kts 290°
2026-05-05 14:34 7.54089 170.23440 25602 ft 446 kts 290°
2026-05-05 14:34 7.55242 170.20524 25887 ft 448 kts 290°
2026-05-05 14:34 7.56395 170.17607 26203 ft 449 kts 289°
2026-05-05 14:35 7.57554 170.14674 26492 ft 451 kts 290°
2026-05-05 14:35 7.58324 170.12724 26676 ft 453 kts 290°
2026-05-05 14:35 7.59491 170.09768 26990 ft 453 kts 290°
2026-05-05 14:35 7.60653 170.06826 27445 ft 451 kts 290°
2026-05-05 14:36 7.61813 170.03889 27787 ft 451 kts 290°
2026-05-05 14:36 7.62976 170.00943 27868 ft 455 kts 289°
2026-05-05 14:36 7.64151 169.97965 27874 ft 458 kts 290°
2026-05-05 14:36 7.65327 169.94982 27873 ft 458 kts 290°
2026-05-05 14:37 7.66503 169.92002 27874 ft 458 kts 289°
2026-05-05 14:37 7.67684 169.89008 27877 ft 459 kts 290°
2026-05-05 14:37 7.68869 169.86003 27882 ft 463 kts 290°
2026-05-05 14:37 7.70062 169.82975 27876 ft 464 kts 289°
2026-05-05 14:38 7.71256 169.79947 27878 ft 465 kts 290°
2026-05-05 14:38 7.72451 169.76918 27878 ft 466 kts 290°
2026-05-05 14:38 7.73632 169.73920 27874 ft 466 kts 290°
2026-05-05 14:38 7.74844 169.70840 27877 ft 466 kts 290°
2026-05-05 14:39 7.76038 169.67808 27873 ft 466 kts 290°
2026-05-05 14:39 7.77215 169.64819 27871 ft 465 kts 290°
2026-05-05 14:39 7.78407 169.61791 27872 ft 464 kts 289°
2026-05-05 14:39 7.79600 169.58759 27871 ft 463 kts 290°
2026-05-05 14:40 7.80785 169.55745 27872 ft 462 kts 289°
2026-05-05 14:40 7.81970 169.52732 27871 ft 461 kts 290°
2026-05-05 14:40 7.83152 169.49727 27871 ft 461 kts 290°
2026-05-05 14:40 7.84336 169.46719 27872 ft 460 kts 290°
2026-05-05 14:41 7.85517 169.43714 27872 ft 460 kts 289°
2026-05-05 14:41 7.86680 169.40753 27874 ft 460 kts 289°
2026-05-05 14:41 7.87860 169.37747 27874 ft 460 kts 289°
2026-05-05 14:41 7.89038 169.34745 27876 ft 461 kts 289°
2026-05-05 14:42 7.90220 169.31737 27877 ft 461 kts 289°
2026-05-05 14:42 7.91401 169.28728 27877 ft 461 kts 290°
2026-05-05 14:42 7.92583 169.25717 27876 ft 462 kts 290°
2026-05-05 14:42 7.93769 169.22695 27876 ft 462 kts 289°
2026-05-05 14:43 7.94951 169.19681 27876 ft 463 kts 289°
2026-05-05 14:43 7.96131 169.16670 27861 ft 459 kts 289°
2026-05-05 14:43 7.97303 169.13683 27877 ft 461 kts 290°
2026-05-05 14:43 7.98489 169.10654 27883 ft 466 kts 290°
2026-05-05 14:44 7.99683 169.07604 27886 ft 470 kts 289°
2026-05-05 14:44 8.00896 169.04506 27601 ft 481 kts 289°
2026-05-05 14:44 8.02137 169.01331 27118 ft 494 kts 290°
2026-05-05 14:44 8.03404 168.98091 26587 ft 495 kts 290°
2026-05-05 14:45 8.04670 168.94863 26031 ft 495 kts 290°
2026-05-05 14:45 8.05939 168.91624 25453 ft 497 kts 290°
2026-05-05 14:45 8.07209 168.88381 24869 ft 495 kts 290°
2026-05-05 14:45 8.08451 168.85212 24313 ft 488 kts 291°
2026-05-05 14:46 8.09693 168.82036 23755 ft 483 kts 291°
2026-05-05 14:46 8.10921 168.78897 23140 ft 478 kts 291°
2026-05-05 14:46 8.12134 168.75795 22538 ft 473 kts 291°
2026-05-05 14:46 8.13333 168.72727 21982 ft 468 kts 291°
2026-05-05 14:47 8.14520 168.69688 21443 ft 464 kts 291°
2026-05-05 14:47 8.15702 168.66661 20911 ft 462 kts 291°
2026-05-05 14:47 8.16879 168.63647 20375 ft 461 kts 291°
2026-05-05 14:47 8.18058 168.60626 19830 ft 462 kts 291°
2026-05-05 14:48 8.19233 168.57615 19285 ft 460 kts 291°
2026-05-05 14:48 8.20402 168.54621 18755 ft 456 kts 291°
2026-05-05 14:48 8.21563 168.51645 18225 ft 452 kts 291°
2026-05-05 14:48 8.22714 168.48695 17637 ft 450 kts 291°
2026-05-05 14:49 8.23837 168.45813 17116 ft 447 kts 291°
2026-05-05 14:49 8.24992 168.42850 16586 ft 444 kts 291°
2026-05-05 14:49 8.26121 168.39954 16079 ft 442 kts 291°
2026-05-05 14:49 8.27242 168.37075 15566 ft 439 kts 291°
2026-05-05 14:50 8.28345 168.34244 15061 ft 436 kts 291°
2026-05-05 14:50 8.29441 168.31427 14557 ft 435 kts 291°
2026-05-05 14:50 8.30564 168.28544 14048 ft 440 kts 291°
2026-05-05 14:50 8.31682 168.25671 13521 ft 437 kts 291°
2026-05-05 14:51 8.32783 168.22842 12965 ft 430 kts 291°
2026-05-05 14:51 8.33867 168.20058 12471 ft 422 kts 291°
2026-05-05 14:51 8.34929 168.17327 11977 ft 410 kts 291°
2026-05-05 14:51 8.35952 168.14697 11500 ft 394 kts 291°
2026-05-05 14:52 8.36933 168.12175 11062 ft 378 kts 291°
2026-05-05 14:52 8.37877 168.09746 10638 ft 364 kts 291°
2026-05-05 14:52 8.38781 168.07419 10432 ft 346 kts 291°
2026-05-05 14:52 8.39638 168.05216 10266 ft 328 kts 291°
2026-05-05 14:53 8.40450 168.03124 10125 ft 312 kts 291°
2026-05-05 14:53 8.41213 168.01162 9987 ft 297 kts 291°
2026-05-05 14:53 8.41950 167.99263 9857 ft 284 kts 291°
2026-05-05 14:53 8.42666 167.97419 9592 ft 282 kts 291°
2026-05-05 14:54 8.43387 167.95560 9336 ft 287 kts 291°
2026-05-05 14:54 8.44120 167.93668 9053 ft 292 kts 291°
2026-05-05 14:54 8.44860 167.91761 8761 ft 291 kts 291°
2026-05-05 14:54 8.45597 167.89860 8478 ft 290 kts 291°
2026-05-05 14:55 8.46334 167.87962 8192 ft 290 kts 291°
2026-05-05 14:55 8.47072 167.86059 7909 ft 289 kts 291°
2026-05-05 14:55 8.47803 167.84174 7640 ft 288 kts 291°
2026-05-05 14:55 8.48534 167.82290 7362 ft 288 kts 291°
2026-05-05 14:56 8.49262 167.80410 7081 ft 288 kts 291°
2026-05-05 14:56 8.49993 167.78527 6798 ft 287 kts 291°
2026-05-05 14:56 8.50720 167.76651 6519 ft 287 kts 291°
2026-05-05 14:56 8.51448 167.74773 6228 ft 288 kts 292°
2026-05-05 14:57 8.52177 167.72890 5934 ft 287 kts 292°
2026-05-05 14:57 8.52899 167.71027 5612 ft 288 kts 292°
2026-05-05 14:57 8.53628 167.69144 5334 ft 288 kts 292°
2026-05-05 14:57 8.54357 167.67260 5055 ft 288 kts 292°
2026-05-05 14:58 8.55087 167.65376 4768 ft 288 kts 292°
2026-05-05 14:58 8.55814 167.63498 4490 ft 287 kts 292°
2026-05-05 14:58 8.56537 167.61629 4270 ft 283 kts 292°
2026-05-05 14:58 8.57251 167.59784 4025 ft 281 kts 292°
2026-05-05 14:59 8.58084 167.58021 3774 ft 275 kts 311°
2026-05-05 14:59 8.59477 167.56804 3680 ft 258 kts 336°
2026-05-05 14:59 8.61099 167.56170 3571 ft 244 kts 348°
2026-05-05 14:59 8.62701 167.55675 3470 ft 236 kts 349°
2026-05-05 15:00 8.64261 167.55317 3353 ft 222 kts
2026-05-05 15:00 8.65236 167.55507 3308 ft 202 kts 32°
2026-05-05 15:00 8.66383 167.56759 3141 ft 179 kts 58°
2026-05-05 15:00 8.67039 167.57765 2996 ft 168 kts 68°
2026-05-05 15:01 8.67507 167.58827 2800 ft 162 kts 71°
2026-05-05 15:01 8.67894 167.59880 2600 ft 158 kts 73°
2026-05-05 15:01 8.68231 167.60918 2382 ft 155 kts 74°
2026-05-05 15:01 8.68553 167.61949 2198 ft 149 kts 75°
2026-05-05 15:02 8.68857 167.62930 1995 ft 142 kts 75°
2026-05-05 15:02 8.69137 167.63835 1797 ft 130 kts 75°
2026-05-05 15:02 8.69400 167.64695 1651 ft 130 kts 73°
2026-05-05 15:02 8.69674 167.65581 1447 ft 132 kts 73°
2026-05-05 15:03 8.69943 167.66451 1264 ft 130 kts 71°
2026-05-05 15:03 8.70213 167.67326 1099 ft 131 kts 72°
2026-05-05 15:03 8.70479 167.68189 925 ft 129 kts 74°
2026-05-05 15:03 8.70751 167.69071 760 ft 134 kts 72°
2026-05-05 15:04 8.71024 167.69963 588 ft 131 kts 75°
2026-05-05 15:04 8.71308 167.70832 387 ft 130 kts 76°
2026-05-05 15:04 8.71551 167.71674 201 ft 122 kts 76°
2026-05-05 15:04 8.71809 167.72492 -43 ft 120 kts 74°
2026-05-05 15:05 8.72036 167.73245 -52 ft 0 kts 72°
2026-05-05 15:05 8.72040 167.73257 -46 ft 8 kts 72°
2026-05-05 15:05 8.72071 167.73356 -45 ft 21 kts 72°
2026-05-05 15:06 8.72161 167.73416 -45 ft 16 kts 346°
2026-05-05 15:06 8.72205 167.73424 -43 ft 2 kts 56°
2026-05-05 15:06 8.72213 167.73443 -37 ft 4 kts 71°
2026-05-05 15:06 8.72224 167.73483 -53 ft 8 kts 74°
2026-05-05 15:07 8.72246 167.73546 -37 ft 11 kts 68°
2026-05-05 15:07 8.72265 167.73603 -37 ft 4 kts 75°
2026-05-05 15:07 8.72277 167.73645 -37 ft 8 kts 75°
2026-05-05 15:07 8.72295 167.73710 -50 ft 11 kts 72°
2026-05-05 15:08 8.72321 167.73795 -47 ft 15 kts 72°
2026-05-05 15:08 8.72372 167.73821 -37 ft 5 kts 344°
2026-05-05 15:08 8.72383 167.73818 -49 ft 3 kts 343°
2026-05-05 15:08 8.72384 167.73818 -49 ft 0 kts 343°